Flag for Germany Weather past 2 weeks in Hofheim am Taunus, Hesse, Germany

Now
39 °F

Partly sunny.


Feels Like: 32 °F
Forecast: 33 / 35 °F
Wind: 9 mph from West

Location: Wiesbaden Airport

Current Time: Dec 26, 2014 at 12:01:25 PM

Latest Report: Dec 26, 2014 at 10:58 AM


Visibility: N/A

Pressure: 30.42 "Hg

Humidity: 92%

Dew point: 36 °F

Location of Hofheim am TaunusLocation

Historic Weather in Hofheim am Taunus — Graph

°F

Hofheim am Taunus temperature yesterday

Maximum temperature yesterday: 45 °F (at 12:02 AM)
Minimum temperature yesterday: 36 °F (at 7:58 AM)
Average temperature yesterday: 40 °F

Past Weeks' High & Low Weather Summary

 TemperatureHumidityPressure
High55 °F (Dec 18, 9:01 PM)100% (Dec 13, 4:58 AM)30.48 "Hg (Dec 13, 4:58 AM)
Low32 °F (Dec 17, 5:04 AM)71% (Dec 12, 8:58 PM)29.62 "Hg (Dec 12, 6:58 PM)
Average43 °F89%30.07 "Hg
* Reported Dec 11 10:58 AM — Dec 26 10:58 AM, Hofheim am Taunus, Weather by CustomWeather, © 2014

Note: Actual official high and low records may vary slightly from our data, if they occured in-between our weather recording intervals... More about our weather records

Advertising

Hofheim am Taunus weather history for previous 24 hours

 ConditionsComfort  
Time TempWeatherWind HumidityBarometerVisibility
10:58 AM
Dec 26
39 °FPartly sunny.9 mph92%30.42 "HgN/A
10:02 AM36 °FCloudy.3 mph100%30.40 "HgN/A
9:58 AM36 °FMostly cloudy.5 mph100%30.42 "HgN/A
8:58 AM35 °FPartly sunny.5 mph96%30.42 "HgN/A
8:04 AM34 °FPassing clouds.2 mph93%30.39 "HgN/A
7:58 AM35 °FPartly cloudy.2 mph97%30.42 "HgN/A
6:58 AM34 °FOvercast.No wind98%30.42 "HgN/A
5:58 AM34 °FMostly cloudy.5 mph96%30.41 "HgN/A
5:03 AM34 °FPartly cloudy.1 mph93%30.38 "HgN/A
4:58 AM34 °FPassing clouds.No wind93%30.41 "HgN/A
4:00 AM32 °FPassing clouds.6 mph100%30.37 "HgN/A
3:58 AM34 °FPassing clouds.7 mph100%30.40 "HgN/A
3:04 AM34 °FPassing clouds.9 mph93%30.37 "HgN/A
2:58 AM35 °FPartly cloudy.8 mph94%30.40 "HgN/A
1:58 AM35 °FMostly cloudy.3 mph90%30.40 "HgN/A
12:58 AM36 °FMostly cloudy.7 mph87%30.40 "HgN/A
11:58 PM
Dec 25
36 °FClear.2 mph89%30.38 "HgN/A
10:58 PM38 °FPassing clouds.9 mph86%30.37 "HgN/A
9:58 PM39 °FMostly cloudy.10 mph82%30.36 "HgN/A
9:00 PM39 °FMostly cloudy.7 mph87%30.33 "HgN/A
8:58 PM39 °FDrizzle. Mostly cloudy.6 mph87%30.36 "HgN/A
7:58 PM39 °FPassing clouds.8 mph87%30.34 "HgN/A
6:58 PM40 °FPassing clouds.14 mph85%30.32 "HgN/A
5:58 PM41 °FLight rain. Mostly cloudy.7 mph82%30.30 "HgN/A
4:58 PM41 °FClear.12 mph79%30.28 "HgN/A
3:58 PM43 °FOvercast.13 mph76%30.27 "HgN/A
2:58 PM44 °FMore clouds than sun.13 mph72%30.27 "HgN/A
1:58 PM43 °FMostly cloudy.14 mph72%30.27 "HgN/A
12:58 PM43 °FOvercast.12 mph74%30.27 "HgN/A
Weather by CustomWeather, © 2014

See weather overviewHow to use our weather pages